Location: Rounton
(54.4000°N, 1.3500°W)
Time: 23:04:39
(UTC+00:00)

Vanguard 3 - Pass Details

Date: 04 December 2021
Orbit: 508 x 3260 km, 33.3° (Epoch: 17 January)

Event Time Altitude Azimuth Distance (km) Brightness Sun altitude
Rises 04:14:22 0° 229° (SW) 7,121 - -32.6°
Reaches altitude 10° 04:19:54 10° 220° (SW) 6,188 - -31.8°
Exits shadow 04:22:16 14° 216° (SW) 5,809 11.1 -31.4°
Maximum altitude 04:35:39 32° 168° (SSE) 4,320 10.8 -29.5°
Drops below altitude 10° 04:48:27 10° 114° (ESE) 5,039 12.0 -27.6°
Sets 04:52:21 0° 105° (ESE) 5,687 12.7 -27.1°
